Time,TemperatureF,DewpointF,PressureIn,WindDirection,WindDirectionDegrees,WindSpeedMPH,WindSpeedGustMPH,Humidity,HourlyPrecipIn,Conditions,Clouds,dailyrainin,SoftwareType,DateUTC
2013-02-03 00:03:00,25.0,23.0,-100.00,NNW,343,6.0,8.0,91,2.83,,,-99.99,,2013-02-03 05:03:00,
2013-02-03 00:12:00,25.0,23.0,-100.00,NNW,331,4.0,8.0,91,6.22,,,-99.99,,2013-02-03 05:12:00,
2013-02-03 00:22:00,25.0,23.0,-100.00,NNW,343,4.0,8.0,91,1.14,,,-99.99,,2013-02-03 05:22:00,
2013-02-03 00:32:00,25.0,23.0,-100.00,NNW,334,5.0,8.0,91,1.14,,,-99.99,,2013-02-03 05:32:00,
2013-02-03 00:42:00,25.0,23.0,-100.00,NNW,347,5.0,8.0,91,0.00,,,-99.99,,2013-02-03 05:42:00,
2013-02-03 00:52:00,24.0,23.0,-100.00,NNE,26,7.0,10.0,91,0.00,,,-99.99,,2013-02-03 05:52:00,
2013-02-03 01:02:00,23.0,21.0,-100.00,NE,43,8.0,10.0,90,0.00,,,-99.99,,2013-02-03 06:02:00,
2013-02-03 01:11:00,22.0,21.0,-100.00,NE,56,6.0,10.0,91,0.00,,,-99.99,,2013-02-03 06:11:00,
2013-02-03 01:21:00,22.0,21.0,-100.00,ENE,62,7.0,10.0,91,0.00,,,-99.99,,2013-02-03 06:21:00,
2013-02-03 01:32:00,22.0,21.0,-100.00,NE,45,5.0,10.0,89,0.00,,,-99.99,,2013-02-03 06:32:00,
2013-02-03 01:42:00,22.0,21.0,-100.00,NE,49,4.0,10.0,89,0.00,,,-99.99,,2013-02-03 06:42:00,
2013-02-03 01:52:00,22.0,19.0,-100.00,East,79,4.0,10.0,88,0.00,,,-99.99,,2013-02-03 06:52:00,
2013-02-03 02:02:00,22.0,19.0,-100.00,NE,36,3.0,10.0,88,0.00,,,-99.99,,2013-02-03 07:02:00,
2013-02-03 02:11:00,22.0,19.0,-100.00,NE,52,2.0,10.0,88,0.00,,,-99.99,,2013-02-03 07:11:00,
2013-02-03 02:21:00,22.0,19.0,-100.00,NNE,32,2.0,10.0,88,0.00,,,-99.99,,2013-02-03 07:21:00,
2013-02-03 02:32:00,22.0,19.0,-100.00,NE,45,2.0,10.0,88,0.00,,,-99.99,,2013-02-03 07:32:00,
2013-02-03 02:42:00,21.0,19.0,-100.00,ENE,59,2.0,10.0,89,0.00,,,-99.99,,2013-02-03 07:42:00,
2013-02-03 02:52:00,21.0,19.0,-100.00,NE,36,3.0,10.0,89,0.00,,,-99.99,,2013-02-03 07:52:00,
2013-02-03 03:02:00,20.0,19.0,-100.00,NNE,25,2.0,10.0,89,0.00,,,-99.99,,2013-02-03 08:02:00,
2013-02-03 03:11:00,21.0,19.0,-100.00,NNE,16,4.0,10.0,89,0.00,,,-99.99,,2013-02-03 08:11:00,
2013-02-03 03:22:00,20.0,18.0,-100.00,NNE,25,4.0,10.0,89,0.00,,,-99.99,,2013-02-03 08:22:00,
2013-02-03 03:32:00,20.0,18.0,-100.00,NNE,18,5.0,10.0,89,0.00,,,-99.99,,2013-02-03 08:32:00,
2013-02-03 03:42:00,20.0,18.0,-100.00,North,11,4.0,10.0,89,0.00,,,-99.99,,2013-02-03 08:42:00,
2013-02-03 03:52:00,20.0,18.0,-100.00,NNE,32,3.0,10.0,89,0.00,,,-99.99,,2013-02-03 08:52:00,
2013-02-03 04:03:00,20.0,18.0,-100.00,NE,52,2.0,10.0,90,0.00,,,-99.99,,2013-02-03 09:03:00,
2013-02-03 04:11:00,19.0,18.0,-100.00,North,360,2.0,10.0,90,0.00,,,-99.99,,2013-02-03 09:11:00,
2013-02-03 04:22:00,17.0,16.0,-100.00,NNE,24,1.0,10.0,89,0.00,,,-99.99,,2013-02-03 09:22:00,
2013-02-03 04:32:00,19.0,18.0,-100.00,North,350,1.0,10.0,90,0.00,,,-99.99,,2013-02-03 09:32:00,
2013-02-03 04:42:00,19.0,18.0,-100.00,North,352,1.0,10.0,90,0.00,,,-99.99,,2013-02-03 09:42:00,
2013-02-03 04:52:00,19.0,18.0,-100.00,North,358,1.0,10.0,90,0.00,,,-99.99,,2013-02-03 09:52:00,
2013-02-03 05:01:00,19.0,18.0,-100.00,NNW,333,0.0,10.0,90,0.00,,,-99.99,,2013-02-03 10:01:00,
2013-02-03 05:11:00,19.0,18.0,-100.00,NW,320,2.0,10.0,90,0.00,,,-99.99,,2013-02-03 10:11:00,
2013-02-03 05:21:00,19.0,18.0,-100.00,North,354,2.0,10.0,90,0.00,,,-99.99,,2013-02-03 10:21:00,
2013-02-03 05:32:00,19.0,18.0,-100.00,North,5,2.0,10.0,90,0.00,,,-99.99,,2013-02-03 10:32:00,
2013-02-03 05:42:00,19.0,18.0,-100.00,North,2,2.0,10.0,91,0.00,,,-99.99,,2013-02-03 10:42:00,
2013-02-03 05:52:00,19.0,18.0,-100.00,NNW,348,2.0,10.0,90,0.00,,,-99.99,,2013-02-03 10:52:00,
2013-02-03 06:02:00,18.0,16.0,-100.00,North,1,3.0,10.0,90,0.00,,,-99.99,,2013-02-03 11:02:00,
2013-02-03 06:11:00,18.0,16.0,-100.00,North,4,2.0,10.0,90,0.00,,,-99.99,,2013-02-03 11:11:00,
2013-02-03 06:22:00,18.0,16.0,-100.00,NNE,24,2.0,10.0,90,0.00,,,-99.99,,2013-02-03 11:22:00,
2013-02-03 06:32:00,17.0,16.0,-100.00,North,11,2.0,10.0,90,0.00,,,-99.99,,2013-02-03 11:32:00,
2013-02-03 06:42:00,17.0,16.0,-100.00,NNE,33,2.0,10.0,90,0.00,,,-99.99,,2013-02-03 11:42:00,
2013-02-03 06:52:00,17.0,16.0,-100.00,NNE,21,2.0,10.0,90,0.00,,,-99.99,,2013-02-03 11:52:00,
2013-02-03 07:02:00,15.0,14.0,-100.00,NE,46,2.0,10.0,90,0.00,,,-99.99,,2013-02-03 12:02:00,
2013-02-03 07:12:00,14.0,12.0,-100.00,NE,40,2.0,10.0,89,0.00,,,-99.99,,2013-02-03 12:12:00,
2013-02-03 07:22:00,15.0,14.0,-100.00,NNE,31,2.0,10.0,89,0.00,,,-99.99,,2013-02-03 12:22:00,
2013-02-03 07:32:00,15.0,14.0,-100.00,ENE,60,2.0,10.0,89,0.00,,,-99.99,,2013-02-03 12:32:00,
2013-02-03 07:42:00,17.0,16.0,-100.00,NE,35,2.0,10.0,90,0.00,,,-99.99,,2013-02-03 12:42:00,
2013-02-03 07:53:00,18.0,16.0,-100.00,NE,56,1.0,10.0,90,0.00,,,-99.99,,2013-02-03 12:53:00,
2013-02-03 08:03:00,18.0,16.0,-100.00,NNE,31,2.0,10.0,90,0.00,,,-99.99,,2013-02-03 13:03:00,
2013-02-03 08:11:00,17.0,16.0,-100.00,NE,38,3.0,10.0,90,0.00,,,-99.99,,2013-02-03 13:11:00,
2013-02-03 08:22:00,18.0,16.0,-100.00,NNE,31,2.0,10.0,90,0.00,,,-99.99,,2013-02-03 13:22:00,
2013-02-03 08:32:00,18.0,16.0,-100.00,NE,55,2.0,10.0,90,0.00,,,-99.99,,2013-02-03 13:32:00,
2013-02-03 08:42:00,18.0,16.0,-100.00,NNE,31,2.0,10.0,90,0.00,,,-99.99,,2013-02-03 13:42:00,
2013-02-03 08:52:00,18.0,16.0,-100.00,NNE,15,4.0,10.0,90,0.00,,,-99.99,,2013-02-03 13:52:00,
2013-02-03 09:02:00,18.0,16.0,-100.00,NNE,14,4.0,10.0,90,0.00,,,-99.99,,2013-02-03 14:02:00,
2013-02-03 09:12:00,18.0,16.0,-100.00,North,360,2.0,10.0,90,0.00,,,-99.99,,2013-02-03 14:12:00,
2013-02-03 09:22:00,19.0,18.0,-100.00,NE,40,1.0,10.0,89,1.14,,,-99.99,,2013-02-03 14:22:00,
2013-02-03 09:32:00,17.0,14.0,-100.00,NNE,19,1.0,10.0,88,0.00,,,-99.99,,2013-02-03 14:32:00,
2013-02-03 09:42:00,17.0,14.0,-100.00,North,357,1.0,10.0,88,6.22,,,-99.99,,2013-02-03 14:42:00,
2013-02-03 09:52:00,18.0,16.0,-100.00,NNE,22,1.0,10.0,88,1.14,,,-99.99,,2013-02-03 14:52:00,
2013-02-03 10:03:00,18.0,16.0,-100.00,NNW,334,1.0,10.0,86,2.83,,,-99.99,,2013-02-03 15:03:00,
2013-02-03 10:12:00,18.0,16.0,-100.00,NW,326,2.0,10.0,86,0.00,,,-99.99,,2013-02-03 15:12:00,
2013-02-03 10:22:00,20.0,18.0,-100.00,NNW,337,2.0,10.0,88,0.00,,,-99.99,,2013-02-03 15:22:00,
2013-02-03 10:33:00,20.0,18.0,-100.00,North,354,4.0,10.0,88,1.14,,,-99.99,,2013-02-03 15:33:00,
2013-02-03 10:42:00,18.0,16.0,-100.00,NNE,22,5.0,10.0,86,1.14,,,-99.99,,2013-02-03 15:42:00,
2013-02-03 10:51:00,18.0,16.0,-100.00,North,1,6.0,10.0,86,1.14,,,-99.99,,2013-02-03 15:51:00,
2013-02-03 11:03:00,18.0,16.0,-100.00,North,358,9.0,14.0,86,1.14,,,-99.99,,2013-02-03 16:03:00,
2013-02-03 11:11:00,18.0,16.0,-100.00,North,351,9.0,14.0,85,1.14,,,-99.99,,2013-02-03 16:11:00,
2013-02-03 11:22:00,18.0,16.0,-100.00,North,360,7.0,14.0,86,1.14,,,-99.99,,2013-02-03 16:22:00,
2013-02-03 11:33:00,18.0,16.0,-100.00,North,4,6.0,14.0,86,1.14,,,-99.99,,2013-02-03 16:33:00,
2013-02-03 11:42:00,18.0,16.0,-100.00,NNE,26,6.0,14.0,85,1.14,,,-99.99,,2013-02-03 16:42:00,
2013-02-03 11:52:00,18.0,16.0,-100.00,NNE,14,6.0,14.0,85,1.14,,,-99.99,,2013-02-03 16:52:00,
2013-02-03 12:03:00,21.0,18.0,-100.00,NNE,16,6.0,14.0,86,0.00,,,-99.99,,2013-02-03 17:03:00,
2013-02-03 12:11:00,21.0,18.0,-100.00,NNE,18,6.0,14.0,85,0.00,,,-99.99,,2013-02-03 17:11:00,
2013-02-03 12:22:00,20.0,18.0,-100.00,NNE,16,6.0,14.0,85,0.00,,,-99.99,,2013-02-03 17:22:00,
2013-02-03 12:32:00,21.0,18.0,-100.00,North,354,6.0,14.0,85,0.00,,,-99.99,,2013-02-03 17:32:00,
2013-02-03 12:42:00,19.0,14.0,-100.00,North,357,7.0,14.0,82,1.14,,,-99.99,,2013-02-03 17:42:00,
2013-02-03 12:52:00,19.0,16.0,-100.00,North,354,6.0,14.0,82,1.14,,,-99.99,,2013-02-03 17:52:00,
2013-02-03 13:03:00,19.0,16.0,-100.00,NNE,12,6.0,14.0,82,1.14,,,-99.99,,2013-02-03 18:03:00,
2013-02-03 13:12:00,19.0,16.0,-100.00,NNW,347,7.0,14.0,82,7.36,,,-99.99,,2013-02-03 18:12:00,
2013-02-03 13:23:00,19.0,16.0,-100.00,North,352,6.0,14.0,82,2.83,,,-99.99,,2013-02-03 18:23:00,
2013-02-03 13:33:00,21.0,18.0,-100.00,NNW,348,6.0,14.0,84,1.14,,,-99.99,,2013-02-03 18:33:00,
2013-02-03 13:42:00,19.0,14.0,-100.00,North,354,9.0,14.0,80,2.83,,,-99.99,,2013-02-03 18:42:00,
2013-02-03 13:52:00,19.0,16.0,-100.00,NW,320,11.0,14.0,80,1.14,,,-99.99,,2013-02-03 18:52:00,
2013-02-03 14:02:00,21.0,16.0,-100.00,NNW,343,12.0,14.0,81,1.14,,,-99.99,,2013-02-03 19:02:00,
2013-02-03 14:11:00,19.0,16.0,-100.00,North,360,11.0,14.0,80,2.83,,,-99.99,,2013-02-03 19:11:00,
2013-02-03 14:22:00,20.0,14.0,-100.00,NW,317,11.0,14.0,76,0.00,,,-99.99,,2013-02-03 19:22:00,
2013-02-03 14:32:00,20.0,14.0,-100.00,NNW,340,11.0,14.0,72,0.00,,,-99.99,,2013-02-03 19:32:00,
2013-02-03 14:42:00,21.0,16.0,-100.00,NNW,348,11.0,14.0,75,0.00,,,-99.99,,2013-02-03 19:42:00,
2013-02-03 14:52:00,21.0,16.0,-100.00,North,352,14.0,17.0,75,0.00,,,-99.99,,2013-02-03 19:52:00,
2013-02-03 15:02:00,21.0,16.0,-100.00,NNW,340,12.0,17.0,75,0.00,,,-99.99,,2013-02-03 20:02:00,
2013-02-03 15:12:00,19.0,14.0,-100.00,NW,324,11.0,17.0,75,0.00,,,-99.99,,2013-02-03 20:12:00,
2013-02-03 15:22:00,19.0,12.0,-100.00,NW,320,12.0,17.0,73,0.00,,,-99.99,,2013-02-03 20:22:00,
2013-02-03 15:33:00,18.0,12.0,-100.00,NW,321,13.0,17.0,73,0.00,,,-99.99,,2013-02-03 20:33:00,
2013-02-03 15:42:00,19.0,12.0,-100.00,NW,310,12.0,17.0,73,0.00,,,-99.99,,2013-02-03 20:42:00,
2013-02-03 15:52:00,18.0,12.0,-100.00,NNW,337,12.0,17.0,72,0.00,,,-99.99,,2013-02-03 20:52:00,
2013-02-03 16:03:00,18.0,12.0,-100.00,NNW,338,14.0,17.0,72,1.14,,,-99.99,,2013-02-03 21:03:00,
2013-02-03 16:11:00,18.0,10.0,-100.00,North,350,15.0,17.0,71,0.00,,,-99.99,,2013-02-03 21:11:00,
2013-02-03 16:21:00,18.0,9.0,-100.00,NNW,334,14.0,17.0,66,0.00,,,-99.99,,2013-02-03 21:21:00,
2013-02-03 16:33:00,18.0,10.0,-100.00,NNW,344,11.0,17.0,68,0.00,,,-99.99,,2013-02-03 21:33:00,
2013-02-03 16:42:00,18.0,10.0,-100.00,NE,39,11.0,17.0,67,0.00,,,-99.99,,2013-02-03 21:42:00,
2013-02-03 16:52:00,18.0,9.0,-100.00,NNW,344,13.0,17.0,66,0.00,,,-99.99,,2013-02-03 21:52:00,
2013-02-03 17:02:00,18.0,10.0,-100.00,NNW,327,10.0,17.0,68,0.00,,,-99.99,,2013-02-03 22:02:00,
2013-02-03 17:11:00,18.0,10.0,-100.00,NW,323,9.0,17.0,69,0.00,,,-99.99,,2013-02-03 22:11:00,
2013-02-03 17:21:00,18.0,10.0,-100.00,NNW,327,12.0,17.0,71,0.00,,,-99.99,,2013-02-03 22:21:00,
2013-02-03 17:32:00,18.0,10.0,-100.00,NNW,327,14.0,17.0,71,0.00,,,-99.99,,2013-02-03 22:32:00,
2013-02-03 17:42:00,18.0,12.0,-100.00,NW,319,11.0,17.0,73,0.00,,,-99.99,,2013-02-03 22:42:00,
2013-02-03 17:51:00,18.0,12.0,-100.00,NW,306,11.0,17.0,73,0.00,,,-99.99,,2013-02-03 22:51:00,
2013-02-03 18:01:00,17.0,10.0,-100.00,NW,314,10.0,17.0,73,0.00,,,-99.99,,2013-02-03 23:01:00,
2013-02-03 18:12:00,18.0,12.0,-100.00,NW,313,11.0,17.0,73,0.00,,,-99.99,,2013-02-03 23:12:00,
2013-02-03 18:22:00,18.0,12.0,-100.00,WNW,288,11.0,17.0,75,0.00,,,-99.99,,2013-02-03 23:22:00,
2013-02-03 18:32:00,18.0,12.0,-100.00,NNW,330,10.0,17.0,75,0.00,,,-99.99,,2013-02-03 23:32:00,
2013-02-03 18:42:00,18.0,12.0,-100.00,NW,309,10.0,17.0,76,0.00,,,-99.99,,2013-02-03 23:42:00,
2013-02-03 18:52:00,18.0,12.0,-100.00,NW,326,12.0,17.0,76,0.00,,,-99.99,,2013-02-03 23:52:00,
2013-02-03 19:02:00,18.0,12.0,-100.00,NW,309,9.0,17.0,77,0.00,,,-99.99,,2013-02-04 00:02:00,
2013-02-03 19:11:00,18.0,12.0,-100.00,NNW,328,9.0,17.0,77,0.00,,,-99.99,,2013-02-04 00:11:00,
2013-02-03 19:22:00,18.0,12.0,-100.00,NNW,333,9.0,17.0,77,0.00,,,-99.99,,2013-02-04 00:22:00,
2013-02-03 19:32:00,18.0,12.0,-100.00,NNW,337,11.0,17.0,77,0.00,,,-99.99,,2013-02-04 00:32:00,
2013-02-03 19:42:00,17.0,12.0,-100.00,NW,320,9.0,17.0,77,0.00,,,-99.99,,2013-02-04 00:42:00,
2013-02-03 19:51:00,17.0,12.0,-100.00,NW,319,9.0,17.0,77,0.00,,,-99.99,,2013-02-04 00:51:00,
2013-02-03 20:01:00,17.0,12.0,-100.00,NW,307,7.0,17.0,78,0.00,,,-99.99,,2013-02-04 01:01:00,
2013-02-03 20:11:00,16.0,12.0,-100.00,NW,306,8.0,17.0,78,0.00,,,-99.99,,2013-02-04 01:11:00,
2013-02-03 20:21:00,17.0,12.0,-100.00,NW,319,8.0,17.0,78,0.00,,,-99.99,,2013-02-04 01:21:00,
2013-02-03 20:32:00,17.0,12.0,-100.00,NW,306,8.0,17.0,78,0.00,,,-99.99,,2013-02-04 01:32:00,
2013-02-03 20:42:00,17.0,12.0,-100.00,NW,309,9.0,17.0,78,0.00,,,-99.99,,2013-02-04 01:42:00,
2013-02-03 20:52:00,17.0,12.0,-100.00,NW,312,9.0,17.0,78,0.00,,,-99.99,,2013-02-04 01:52:00,
2013-02-03 21:02:00,17.0,12.0,-100.00,WNW,303,8.0,17.0,78,0.00,,,-99.99,,2013-02-04 02:02:00,
2013-02-03 21:11:00,16.0,12.0,-100.00,NW,324,8.0,17.0,80,0.00,,,-99.99,,2013-02-04 02:11:00,
2013-02-03 21:21:00,16.0,12.0,-100.00,NW,317,7.0,17.0,80,0.00,,,-99.99,,2013-02-04 02:21:00,
2013-02-03 21:32:00,16.0,12.0,-100.00,NW,313,7.0,17.0,80,0.00,,,-99.99,,2013-02-04 02:32:00,
2013-02-03 21:42:00,16.0,12.0,-100.00,NNW,327,6.0,17.0,80,0.00,,,-99.99,,2013-02-04 02:42:00,
2013-02-03 21:52:00,16.0,12.0,-100.00,NW,304,6.0,17.0,81,0.00,,,-99.99,,2013-02-04 02:52:00,
2013-02-03 22:02:00,16.0,12.0,-100.00,NNW,327,6.0,17.0,81,0.00,,,-99.99,,2013-02-04 03:02:00,
2013-02-03 22:11:00,16.0,12.0,-100.00,WNW,296,6.0,6.0,81,0.00,,,-99.99,,2013-02-04 03:11:00,
2013-02-03 22:21:00,16.0,12.0,-100.00,WNW,303,7.0,8.0,82,0.00,,,-99.99,,2013-02-04 03:21:00,
2013-02-03 22:32:00,15.0,12.0,-100.00,NW,307,8.0,10.0,82,0.00,,,-99.99,,2013-02-04 03:32:00,
2013-02-03 22:42:00,16.0,12.0,-100.00,NW,317,6.0,10.0,81,0.00,,,-99.99,,2013-02-04 03:42:00,
2013-02-03 22:51:00,15.0,12.0,-100.00,NNW,330,6.0,10.0,81,0.00,,,-99.99,,2013-02-04 03:51:00,
2013-02-03 23:01:00,18.0,14.0,-100.00,NW,309,7.0,10.0,81,0.00,,,-99.99,,2013-02-04 04:01:00,
2013-02-03 23:11:00,18.0,16.0,-100.00,NW,310,6.0,10.0,84,0.00,,,-99.99,,2013-02-04 04:11:00,
2013-02-03 23:21:00,17.0,14.0,-100.00,WNW,300,6.0,10.0,84,0.00,,,-99.99,,2013-02-04 04:21:00,
2013-02-03 23:32:00,17.0,14.0,-100.00,NW,316,6.0,10.0,85,0.00,,,-99.99,,2013-02-04 04:32:00,
2013-02-03 23:42:00,17.0,14.0,-100.00,NW,306,5.0,10.0,85,0.00,,,-99.99,,2013-02-04 04:42:00,
2013-02-03 23:52:00,15.0,12.0,-100.00,NW,309,6.0,10.0,84,0.00,,,-99.99,,2013-02-04 04:52:00,